| time (UTC) | temp F | wind direction | speed MPH | gust MPH | rain 1hr in | rain 24hr in | rain mn in | humidity % | barometer mb |
| 20260509203043 | 75 | 251 | 4.0 | 10.0 | 0.00 | 0.00 | 0.00 | 28 | 1019.7 |
| 20260509201544 | 75 | 192 | 2.0 | 10.0 | 0.00 | 0.00 | 0.00 | 28 | 1019.7 |
| 20260509200044 | 74 | 189 | 3.0 | 8.0 | 0.00 | 0.00 | 0.00 | 29 | 1019.8 |
| 20260509194539 | 73 | 302 | 3.0 | 9.0 | 0.00 | 0.00 | 0.00 | 30 | 1020.2 |
| 20260509193047 | 72 | 207 | 3.0 | 11.0 | 0.00 | 0.00 | 0.00 | 29 | 1020.5 |
| 20260509191546 | 73 | 337 | 3.0 | 5.0 | 0.00 | 0.00 | 0.00 | 27 | 1020.6 |
| 20260509190053 | 72 | 313 | 2.0 | 9.0 | 0.00 | 0.00 | 0.00 | 29 | 1020.8 |
| 20260509184558 | 71 | 309 | 3.0 | 12.0 | 0.00 | 0.00 | 0.00 | 31 | 1021.0 |
| 20260509183040 | 71 | 0 | 0.0 | 5.0 | 0.00 | 0.00 | 0.00 | 30 | 1021.1 |
| 20260509181545 | 70 | 226 | 1.0 | 9.0 | 0.00 | 0.00 | 0.00 | 31 | 1021.3 |
| 20260509180046 | 70 | 337 | 2.0 | 5.0 | 0.00 | 0.00 | 0.00 | 33 | 1021.4 |
| 20260509174546 | 69 | 0 | 2.0 | 6.0 | 0.00 | 0.00 | 0.00 | 34 | 1021.6 |
| 20260509173039 | 67 | 35 | 2.0 | 6.0 | 0.00 | 0.00 | 0.00 | 40 | 1021.6 |
| 20260509171538 | 66 | 10 | 1.0 | 6.0 | 0.00 | 0.00 | 0.00 | 42 | 1021.6 |
| 20260509170053 | 65 | 229 | 1.0 | 4.0 | 0.00 | 0.00 | 0.00 | 49 | 1021.8 |
| 20260509164546 | 63 | 0 | 2.0 | 4.0 | 0.00 | 0.00 | 0.00 | 47 | 1021.7 |
| 20260509163054 | 63 | 0 | 0.0 | 2.0 | 0.00 | 0.00 | 0.00 | 48 | 1021.8 |
| 20260509161541 | 61 | 0 | 0.0 | 3.0 | 0.00 | 0.00 | 0.00 | 50 | 1021.8 |
| 20260509160039 | 60 | 0 | 1.0 | 4.0 | 0.00 | 0.00 | 0.00 | 56 | 1021.9 |
| 20260509154544 | 57 | 104 | 0.0 | 3.0 | 0.00 | 0.00 | 0.00 | 59 | 1021.8 |
| 20260509153045 | 54 | 0 | 0.0 | 3.0 | 0.00 | 0.00 | 0.00 | 65 | 1021.9 |
| 20260509151550 | 53 | 0 | 0.0 | 4.0 | 0.00 | 0.00 | 0.00 | 68 | 1021.9 |
| 20260509150040 | 52 | 0 | 0.0 | 0.0 | 0.00 | 0.00 | 0.00 | 68 | 1022.0 |
| 20260509144540 | 49 | 0 | 0.0 | 0.0 | 0.00 | 0.00 | 0.00 | 71 | 1022.0 |
| 20260509143051 | 48 | 0 | 0.0 | 0.0 | 0.00 | 0.00 | 0.00 | 73 | 1021.8 |
| 20260509141558 | 47 | 0 | 0.0 | 0.0 | 0.00 | 0.00 | 0.00 | 71 | 1021.7 |
| 20260509140057 | 46 | 0 | 0.0 | 0.0 | 0.00 | 0.00 | 0.00 | 71 | 1021.7 |
| 20260509134543 | 44 | 0 | 0.0 | 0.0 | 0.00 | 0.00 | 0.00 | 77 | 1021.6 |
| 20260509133047 | 43 | 0 | 0.0 | 0.0 | 0.00 | 0.00 | 0.00 | 76 | 1021.4 |
| 20260509131544 | 42 | 0 | 0.0 | 0.0 | 0.00 | 0.00 | 0.00 | 79 | 1021.3 |
| 20260509130048 | 42 | 0 | 0.0 | 0.0 | 0.00 | 0.00 | 0.00 | 78 | 1021.2 |
| 20260509124548 | 43 | 0 | 0.0 | 0.0 | 0.00 | 0.00 | 0.00 | 78 | 1021.0 |
| 20260509123052 | 43 | 0 | 0.0 | 0.0 | 0.00 | 0.00 | 0.00 | 79 | 1021.0 |
| 20260509121543 | 43 | 0 | 0.0 | 1.0 | 0.00 | 0.00 | 0.00 | 77 | 1020.9 |
| 20260509120048 | 45 | 0 | 0.0 | 2.0 | 0.00 | 0.00 | 0.00 | 73 | 1020.8 |
| 20260509114544 | 45 | 0 | 1.0 | 2.0 | 0.00 | 0.00 | 0.00 | 75 | 1020.7 |
| 20260509113103 | 44 | 0 | 0.0 | 1.0 | 0.00 | 0.00 | 0.00 | 76 | 1020.7 |
| 20260509111547 | 45 | 0 | 0.0 | 0.0 | 0.00 | 0.00 | 0.00 | 74 | 1020.7 |
| 20260509110041 | 45 | 0 | 0.0 | 0.0 | 0.00 | 0.00 | 0.00 | 72 | 1020.6 |
| 20260509104555 | 46 | 0 | 0.0 | 1.0 | 0.00 | 0.00 | 0.00 | 71 | 1020.6 |
| 20260509103056 | 47 | 0 | 0.0 | 3.0 | 0.00 | 0.00 | 0.00 | 71 | 1020.5 |
| 20260509101546 | 47 | 0 | 0.0 | 0.0 | 0.00 | 0.00 | 0.00 | 70 | 1020.5 |
| 20260509100059 | 47 | 0 | 0.0 | 0.0 | 0.00 | 0.00 | 0.00 | 66 | 1020.4 |
| 20260509094548 | 48 | 173 | 0.0 | 2.0 | 0.00 | 0.00 | 0.00 | 68 | 1020.4 |
| 20260509093043 | 49 | 0 | 0.0 | 0.0 | 0.00 | 0.00 | 0.00 | 66 | 1020.4 |
| 20260509091543 | 49 | 0 | 0.0 | 2.0 | 0.00 | 0.00 | 0.00 | 63 | 1020.4 |
| 20260509090039 | 51 | 0 | 0.0 | 0.0 | 0.00 | 0.00 | 0.00 | 58 | 1020.3 |
| 20260509084545 | 52 | 0 | 0.0 | 3.0 | 0.00 | 0.00 | 0.00 | 57 | 1020.3 |
| 20260509083043 | 52 | 0 | 0.0 | 3.0 | 0.00 | 0.00 | 0.00 | 54 | 1020.2 |
| 20260509081543 | 52 | 0 | 0.0 | 2.0 | 0.00 | 0.00 | 0.00 | 51 | 1020.3 |
| 20260509080046 | 52 | 0 | 0.0 | 1.0 | 0.00 | 0.00 | 0.00 | 55 | 1020.2 |
| 20260509074545 | 52 | 346 | 1.0 | 5.0 | 0.00 | 0.00 | 0.00 | 57 | 1020.4 |
| 20260509073047 | 52 | 333 | 0.0 | 4.0 | 0.00 | 0.00 | 0.00 | 57 | 1020.3 |
| 20260509071546 | 54 | 0 | 0.0 | 2.0 | 0.00 | 0.00 | 0.00 | 52 | 1020.1 |
| 20260509070040 | 55 | 86 | 2.0 | 6.0 | 0.00 | 0.00 | 0.00 | 50 | 1019.9 |
| 20260509064542 | 54 | 79 | 1.0 | 2.0 | 0.00 | 0.00 | 0.00 | 53 | 1020.0 |
| 20260509063043 | 54 | 0 | 0.0 | 4.0 | 0.00 | 0.00 | 0.00 | 55 | 1020.0 |
| 20260509061556 | 54 | 0 | 0.0 | 2.0 | 0.00 | 0.00 | 0.00 | 55 | 1020.0 |
| 20260509060041 | 55 | 0 | 0.0 | 0.0 | 0.00 | 0.00 | 0.00 | 57 | 1019.9 |
| 20260509054550 | 56 | 0 | 0.0 | 3.0 | 0.00 | 0.00 | 0.00 | 54 | 1019.8 |
| 20260509053056 | 56 | 0 | 0.0 | 3.0 | 0.00 | 0.00 | 0.00 | 54 | 1019.8 |
| 20260509051550 | 57 | 211 | 2.0 | 4.0 | 0.00 | 0.00 | 0.00 | 52 | 1019.7 |
| 20260509050050 | 57 | 0 | 0.0 | 3.0 | 0.00 | 0.00 | 0.00 | 52 | 1019.5 |
| 20260509044547 | 58 | 0 | 0.0 | 0.0 | 0.00 | 0.00 | 0.00 | 51 | 1019.5 |
| 20260509043039 | 60 | 198 | 1.0 | 3.0 | 0.00 | 0.00 | 0.00 | 48 | 1019.2 |
| 20260509041539 | 62 | 0 | 0.0 | 3.0 | 0.00 | 0.00 | 0.00 | 46 | 1019.2 |
| 20260509040048 | 66 | 235 | 2.0 | 8.0 | 0.00 | 0.00 | 0.00 | 35 | 1018.9 |
| 20260509034550 | 67 | 281 | 3.0 | 10.0 | 0.00 | 0.00 | 0.00 | 33 | 1018.8 |
| 20260509033041 | 68 | 271 | 3.0 | 8.0 | 0.00 | 0.00 | 0.00 | 32 | 1018.6 |
| 20260509031541 | 69 | 299 | 3.0 | 9.0 | 0.00 | 0.00 | 0.00 | 31 | 1018.5 |
| 20260509030046 | 70 | 327 | 5.0 | 10.0 | 0.00 | 0.00 | 0.00 | 29 | 1018.3 |
| 20260509024545 | 70 | 329 | 1.0 | 8.0 | 0.00 | 0.00 | 0.00 | 29 | 1018.3 |
| 20260509023043 | 73 | 0 | 1.0 | 10.0 | 0.00 | 0.00 | 0.00 | 27 | 1018.2 |
| 20260509021541 | 74 | 254 | 2.0 | 12.0 | 0.00 | 0.00 | 0.00 | 27 | 1018.1 |
| 20260509020040 | 74 | 323 | 3.0 | 11.0 | 0.00 | 0.00 | 0.00 | 26 | 1018.0 |
| 20260509014538 | 75 | 263 | 3.0 | 12.0 | 0.00 | 0.00 | 0.00 | 25 | 1018.0 |
| 20260509013046 | 75 | 285 | 6.0 | 13.0 | 0.00 | 0.00 | 0.00 | 25 | 1017.8 |
| 20260509011541 | 76 | 305 | 5.0 | 15.0 | 0.00 | 0.00 | 0.00 | 23 | 1017.8 |
| 20260509010047 | 76 | 268 | 6.0 | 16.0 | 0.00 | 0.00 | 0.00 | 21 | 1017.9 |
| 20260509004541 | 77 | 267 | 5.0 | 17.0 | 0.00 | 0.00 | 0.00 | 20 | 1017.9 |
| 20260509003041 | 77 | 276 | 5.0 | 15.0 | 0.00 | 0.00 | 0.00 | 20 | 1017.9 |
| 20260509001545 | 77 | 278 | 6.0 | 14.0 | 0.00 | 0.00 | 0.00 | 19 | 1018.0 |
| 20260509000044 | 77 | 296 | 8.0 | 16.0 | 0.00 | 0.00 | 0.00 | 19 | 1017.9 |
| 20260508234545 | 77 | 295 | 8.0 | 17.0 | 0.00 | 0.00 | 0.00 | 19 | 1018.0 |
| 20260508233040 | 77 | 254 | 7.0 | 16.0 | 0.00 | 0.00 | 0.00 | 19 | 1018.0 |
| 20260508231621 | 78 | 13 | 6.0 | 15.0 | 0.00 | 0.00 | 0.00 | 19 | 1018.2 |
| 20260508230056 | 77 | 319 | 7.0 | 20.0 | 0.00 | 0.00 | 0.00 | 20 | 1018.5 |
| 20260508224544 | 77 | 229 | 8.0 | 18.0 | 0.00 | 0.00 | 0.00 | 19 | 1018.5 |
| 20260508223044 | 78 | 265 | 4.0 | 17.0 | 0.00 | 0.00 | 0.00 | 21 | 1018.6 |
| 20260508221543 | 78 | 248 | 6.0 | 17.0 | 0.00 | 0.00 | 0.00 | 22 | 1018.6 |
| 20260508220046 | 77 | 248 | 9.0 | 20.0 | 0.00 | 0.00 | 0.00 | 19 | 1018.7 |
| 20260508214617 | 78 | 304 | 6.0 | 14.0 | 0.00 | 0.00 | 0.00 | 18 | 1018.7 |
| 20260508213049 | 78 | 355 | 3.0 | 9.0 | 0.00 | 0.00 | 0.00 | 16 | 1018.9 |
| 20260508211543 | 78 | 240 | 5.0 | 12.0 | 0.00 | 0.00 | 0.00 | 17 | 1018.9 |
| 20260508210053 | 78 | 5 | 6.0 | 10.0 | 0.00 | 0.00 | 0.00 | 18 | 1019.0 |
| 20260508204548 | 79 | 77 | 2.0 | 7.0 | 0.00 | 0.00 | 0.00 | 17 | 1019.2 |